Time,TemperatureF,DewpointF,PressureIn,WindDirection,WindDirectionDegrees,WindSpeedMPH,WindSpeedGustMPH,Humidity,HourlyPrecipIn,Conditions,Clouds,dailyrainin,SoftwareType,DateUTC
2013-05-14 00:03:00,55.0,35.0,-100.00,West,265,0.0,1.0,46,-99.99,,,-99.99,,2013-05-14 04:03:00,
2013-05-14 00:13:00,55.0,36.0,-100.00,WSW,240,1.0,1.0,48,-99.99,,,-99.99,,2013-05-14 04:13:00,
2013-05-14 00:23:00,54.0,36.0,-100.00,SSE,165,1.0,2.0,50,-99.99,,,-99.99,,2013-05-14 04:23:00,
2013-05-14 00:32:00,54.0,36.0,-100.00,South,190,1.0,1.0,51,-99.99,,,-99.99,,2013-05-14 04:32:00,
2013-05-14 00:43:00,53.0,37.0,-100.00,SSW,195,0.0,1.0,53,-99.99,,,-99.99,,2013-05-14 04:43:00,
2013-05-14 00:53:00,53.0,37.0,-100.00,East,80,1.0,2.0,54,-99.99,,,-99.99,,2013-05-14 04:53:00,
2013-05-14 01:02:00,53.0,38.0,-100.00,East,85,2.0,4.0,56,-99.99,,,-99.99,,2013-05-14 05:02:00,
2013-05-14 01:12:00,53.0,38.0,-100.00,East,90,2.0,4.0,57,-99.99,,,-99.99,,2013-05-14 05:12:00,
2013-05-14 01:22:00,53.0,39.0,-100.00,WSW,255,1.0,3.0,60,-99.99,,,-99.99,,2013-05-14 05:22:00,
2013-05-14 01:32:00,52.0,40.0,-100.00,WSW,245,0.0,1.0,64,-99.99,,,-99.99,,2013-05-14 05:32:00,
2013-05-14 01:42:00,52.0,41.0,-100.00,WNW,290,1.0,1.0,66,-99.99,,,-99.99,,2013-05-14 05:42:00,
2013-05-14 01:52:00,52.0,42.0,-100.00,West,260,1.0,1.0,68,-99.99,,,-99.99,,2013-05-14 05:52:00,
2013-05-14 02:01:00,52.0,41.0,-100.00,SW,220,0.0,2.0,67,-99.99,,,-99.99,,2013-05-14 06:01:00,
2013-05-14 02:13:00,52.0,41.0,-100.00,West,260,0.0,1.0,67,-99.99,,,-99.99,,2013-05-14 06:13:00,
2013-05-14 02:22:00,51.0,41.0,-100.00,SW,235,0.0,1.0,68,-99.99,,,-99.99,,2013-05-14 06:22:00,
2013-05-14 02:32:00,51.0,40.0,-100.00,North,5,0.0,1.0,66,-99.99,,,-99.99,,2013-05-14 06:32:00,
2013-05-14 02:42:00,51.0,41.0,-100.00,East,80,2.0,4.0,68,-99.99,,,-99.99,,2013-05-14 06:42:00,
2013-05-14 02:52:00,50.0,41.0,-100.00,NNE,15,0.0,4.0,70,-99.99,,,-99.99,,2013-05-14 06:52:00,
2013-05-14 03:02:00,50.0,42.0,-100.00,WSW,250,0.0,2.0,74,-99.99,,,-99.99,,2013-05-14 07:02:00,
2013-05-14 03:11:00,49.0,43.0,-100.00,WSW,250,1.0,1.0,77,-99.99,,,-99.99,,2013-05-14 07:11:00,
2013-05-14 03:21:00,49.0,43.0,-100.00,WSW,240,1.0,2.0,78,-99.99,,,-99.99,,2013-05-14 07:21:00,
2013-05-14 03:32:00,49.0,42.0,-100.00,SW,215,0.0,1.0,78,-99.99,,,-99.99,,2013-05-14 07:32:00,
2013-05-14 03:42:00,49.0,43.0,-100.00,SW,235,1.0,1.0,80,-99.99,,,-99.99,,2013-05-14 07:42:00,
2013-05-14 03:52:00,48.0,43.0,-100.00,WSW,240,1.0,1.0,80,-99.99,,,-99.99,,2013-05-14 07:52:00,
2013-05-14 04:02:00,48.0,42.0,-100.00,WNW,300,0.0,1.0,81,-99.99,,,-99.99,,2013-05-14 08:02:00,
2013-05-14 04:11:00,48.0,42.0,-100.00,WNW,300,0.0,2.0,81,-99.99,,,-99.99,,2013-05-14 08:11:00,
2013-05-14 04:21:00,48.0,42.0,-100.00,WNW,300,0.0,0.0,81,-99.99,,,-99.99,,2013-05-14 08:21:00,
2013-05-14 04:32:00,49.0,43.0,-100.00,West,260,0.0,1.0,82,-99.99,,,-99.99,,2013-05-14 08:32:00,
2013-05-14 04:42:00,48.0,43.0,-100.00,NW,320,0.0,1.0,82,-99.99,,,-99.99,,2013-05-14 08:42:00,
2013-05-14 04:52:00,48.0,43.0,-100.00,SW,235,1.0,1.0,83,-99.99,,,-99.99,,2013-05-14 08:52:00,
2013-05-14 05:02:00,47.0,43.0,-100.00,SW,215,0.0,1.0,84,-99.99,,,-99.99,,2013-05-14 09:02:00,
2013-05-14 05:11:00,47.0,43.0,-100.00,WSW,250,0.0,1.0,87,-99.99,,,-99.99,,2013-05-14 09:11:00,
2013-05-14 05:22:00,46.0,43.0,-100.00,WSW,250,0.0,1.0,89,-99.99,,,-99.99,,2013-05-14 09:22:00,
2013-05-14 05:32:00,46.0,44.0,-100.00,WSW,250,0.0,1.0,91,-99.99,,,-99.99,,2013-05-14 09:32:00,
2013-05-14 05:44:00,46.0,44.0,-100.00,WSW,250,0.0,1.0,91,-99.99,,,-99.99,,2013-05-14 09:44:00,
2013-05-14 05:54:00,47.0,45.0,-100.00,WSW,250,0.0,1.0,92,-99.99,,,-99.99,,2013-05-14 09:54:00,
2013-05-14 06:05:00,46.0,44.0,-100.00,WSW,250,0.0,1.0,93,-99.99,,,-99.99,,2013-05-14 10:05:00,
2013-05-14 06:14:00,46.0,45.0,-100.00,WSW,250,0.0,1.0,94,-99.99,,,-99.99,,2013-05-14 10:14:00,
2013-05-14 06:25:00,46.0,45.0,-100.00,WSW,250,0.0,1.0,94,-99.99,,,-99.99,,2013-05-14 10:25:00,
2013-05-14 06:33:00,46.0,45.0,-100.00,WSW,250,1.0,1.0,95,-99.99,,,-99.99,,2013-05-14 10:33:00,
2013-05-14 06:42:00,46.0,45.0,-100.00,East,95,0.0,1.0,95,-99.99,,,-99.99,,2013-05-14 10:42:00,
2013-05-14 06:52:00,46.0,45.0,-100.00,WSW,245,1.0,1.0,95,-99.99,,,-99.99,,2013-05-14 10:52:00,
2013-05-14 07:03:00,46.0,45.0,-100.00,WSW,245,0.0,1.0,96,-99.99,,,-99.99,,2013-05-14 11:03:00,
2013-05-14 07:11:00,46.0,45.0,-100.00,WSW,250,1.0,1.0,98,-99.99,,,-99.99,,2013-05-14 11:11:00,
2013-05-14 07:22:00,45.0,45.0,-100.00,SW,225,0.0,1.0,98,-99.99,,,-99.99,,2013-05-14 11:22:00,
2013-05-14 07:32:00,45.0,45.0,-100.00,SW,230,0.0,2.0,98,-99.99,,,-99.99,,2013-05-14 11:32:00,
2013-05-14 07:43:00,45.0,45.0,-100.00,WNW,285,1.0,2.0,98,-99.99,,,-99.99,,2013-05-14 11:43:00,
2013-05-14 07:52:00,46.0,45.0,-100.00,West,265,0.0,1.0,97,-99.99,,,-99.99,,2013-05-14 11:52:00,
2013-05-14 08:03:00,47.0,46.0,-100.00,South,180,0.0,1.0,96,-99.99,,,-99.99,,2013-05-14 12:03:00,
2013-05-14 08:12:00,47.0,46.0,-100.00,WSW,240,0.0,1.0,94,-99.99,,,-99.99,,2013-05-14 12:12:00,
2013-05-14 08:21:00,49.0,46.0,-100.00,SSE,165,0.0,1.0,89,-99.99,,,-99.99,,2013-05-14 12:21:00,
2013-05-14 08:32:00,50.0,46.0,-100.00,WNW,300,1.0,2.0,84,-99.99,,,-99.99,,2013-05-14 12:32:00,
2013-05-14 08:42:00,52.0,46.0,-100.00,West,275,1.0,2.0,80,-99.99,,,-99.99,,2013-05-14 12:42:00,
2013-05-14 08:52:00,53.0,46.0,-100.00,SW,215,0.0,1.0,77,-99.99,,,-99.99,,2013-05-14 12:52:00,
2013-05-14 09:01:00,55.0,46.0,-100.00,SW,220,1.0,2.0,73,-99.99,,,-99.99,,2013-05-14 13:01:00,
2013-05-14 09:11:00,55.0,46.0,-100.00,SW,230,1.0,3.0,72,-99.99,,,-99.99,,2013-05-14 13:11:00,
2013-05-14 09:22:00,56.0,47.0,-100.00,SW,235,1.0,3.0,72,-99.99,,,-99.99,,2013-05-14 13:22:00,
2013-05-14 09:32:00,56.0,47.0,-100.00,SW,235,1.0,3.0,72,-99.99,,,-99.99,,2013-05-14 13:32:00,
2013-05-14 09:42:00,58.0,46.0,-100.00,South,175,1.0,3.0,64,-99.99,,,-99.99,,2013-05-14 13:42:00,
2013-05-14 09:52:00,60.0,47.0,-100.00,SSE,165,4.0,7.0,63,-99.99,,,-99.99,,2013-05-14 13:52:00,
2013-05-14 10:01:00,60.0,44.0,-100.00,SSE,155,6.0,10.0,56,-99.99,,,-99.99,,2013-05-14 14:01:00,
2013-05-14 10:11:00,60.0,43.0,-100.00,SSW,200,5.0,9.0,54,-99.99,,,-99.99,,2013-05-14 14:11:00,
2013-05-14 10:22:00,60.0,43.0,-100.00,South,170,4.0,7.0,53,-99.99,,,-99.99,,2013-05-14 14:22:00,
2013-05-14 10:32:00,61.0,43.0,-100.00,SSW,210,4.0,6.0,51,-99.99,,,-99.99,,2013-05-14 14:32:00,
2013-05-14 10:42:00,63.0,43.0,-100.00,SSW,195,4.0,9.0,49,-99.99,,,-99.99,,2013-05-14 14:42:00,
2013-05-14 10:52:00,64.0,43.0,-100.00,South,190,4.0,9.0,46,-99.99,,,-99.99,,2013-05-14 14:52:00,
2013-05-14 11:01:00,65.0,43.0,-100.00,SE,140,3.0,8.0,45,-99.99,,,-99.99,,2013-05-14 15:01:00,
2013-05-14 11:12:00,64.0,42.0,-100.00,SSW,200,4.0,9.0,45,-99.99,,,-99.99,,2013-05-14 15:12:00,
2013-05-14 11:22:00,65.0,42.0,-100.00,SE,135,4.0,7.0,43,-99.99,,,-99.99,,2013-05-14 15:22:00,
2013-05-14 11:33:00,66.0,42.0,-100.00,SSE,160,4.0,9.0,42,-99.99,,,-99.99,,2013-05-14 15:33:00,
2013-05-14 11:43:00,67.0,42.0,-100.00,South,185,2.0,9.0,40,-99.99,,,-99.99,,2013-05-14 15:43:00,
2013-05-14 11:53:00,67.0,42.0,-100.00,WSW,240,3.0,9.0,39,-99.99,,,-99.99,,2013-05-14 15:53:00,
2013-05-14 12:02:00,69.0,43.0,-100.00,SE,145,1.0,6.0,39,-99.99,,,-99.99,,2013-05-14 16:02:00,
2013-05-14 12:12:00,68.0,41.0,-100.00,NNE,25,1.0,10.0,38,-99.99,,,-99.99,,2013-05-14 16:12:00,
2013-05-14 12:23:00,69.0,42.0,-100.00,SSW,210,4.0,10.0,38,-99.99,,,-99.99,,2013-05-14 16:23:00,
2013-05-14 12:33:00,68.0,42.0,-100.00,SE,145,4.0,11.0,38,-99.99,,,-99.99,,2013-05-14 16:33:00,
2013-05-14 12:44:00,70.0,43.0,-100.00,West,265,6.0,11.0,38,-99.99,,,-99.99,,2013-05-14 16:44:00,
2013-05-14 12:54:00,71.0,43.0,-100.00,SW,230,4.0,9.0,37,-99.99,,,-99.99,,2013-05-14 16:54:00,
2013-05-14 13:03:00,70.0,43.0,-100.00,West,260,5.0,11.0,37,-99.99,,,-99.99,,2013-05-14 17:03:00,
2013-05-14 13:13:00,69.0,43.0,-100.00,WSW,250,4.0,11.0,38,-99.99,,,-99.99,,2013-05-14 17:13:00,
2013-05-14 13:24:00,70.0,43.0,-100.00,WNW,295,4.0,13.0,38,-99.99,,,-99.99,,2013-05-14 17:24:00,
2013-05-14 13:33:00,71.0,44.0,-100.00,West,270,5.0,15.0,38,-99.99,,,-99.99,,2013-05-14 17:33:00,
2013-05-14 13:43:00,70.0,43.0,-100.00,SSW,205,6.0,12.0,38,-99.99,,,-99.99,,2013-05-14 17:43:00,
2013-05-14 13:52:00,71.0,44.0,-100.00,WSW,245,8.0,13.0,38,-99.99,,,-99.99,,2013-05-14 17:52:00,
2013-05-14 14:02:00,72.0,45.0,-100.00,SSW,205,4.0,11.0,38,-99.99,,,-99.99,,2013-05-14 18:02:00,
2013-05-14 14:12:00,71.0,44.0,-100.00,SSW,205,5.0,14.0,38,-99.99,,,-99.99,,2013-05-14 18:12:00,
2013-05-14 14:22:00,71.0,44.0,-100.00,SW,215,4.0,16.0,38,-99.99,,,-99.99,,2013-05-14 18:22:00,
2013-05-14 14:32:00,72.0,45.0,-100.00,NW,315,6.0,16.0,38,-99.99,,,-99.99,,2013-05-14 18:32:00,
2013-05-14 14:42:00,72.0,45.0,-100.00,West,275,6.0,15.0,38,-99.99,,,-99.99,,2013-05-14 18:42:00,
2013-05-14 14:52:00,73.0,46.0,-100.00,West,280,4.0,17.0,38,-99.99,,,-99.99,,2013-05-14 18:52:00,
2013-05-14 15:02:00,72.0,45.0,-100.00,WSW,245,8.0,14.0,38,-99.99,,,-99.99,,2013-05-14 19:02:00,
2013-05-14 15:12:00,72.0,46.0,-100.00,South,170,6.0,11.0,39,-99.99,,,-99.99,,2013-05-14 19:12:00,
2013-05-14 15:22:00,73.0,46.0,-100.00,West,270,8.0,18.0,38,-99.99,,,-99.99,,2013-05-14 19:22:00,
2013-05-14 15:32:00,74.0,47.0,-100.00,SW,230,7.0,13.0,38,-99.99,,,-99.99,,2013-05-14 19:32:00,
2013-05-14 15:42:00,73.0,45.0,-100.00,WSW,245,6.0,19.0,37,-99.99,,,-99.99,,2013-05-14 19:42:00,
2013-05-14 15:52:00,73.0,45.0,-100.00,West,260,5.0,15.0,37,-99.99,,,-99.99,,2013-05-14 19:52:00,
2013-05-14 16:02:00,74.0,46.0,-100.00,West,260,6.0,19.0,37,-99.99,,,-99.99,,2013-05-14 20:02:00,
2013-05-14 16:11:00,73.0,45.0,-100.00,WSW,240,8.0,16.0,37,-99.99,,,-99.99,,2013-05-14 20:11:00,
2013-05-14 16:23:00,74.0,46.0,-100.00,SW,230,7.0,12.0,37,-99.99,,,-99.99,,2013-05-14 20:23:00,
2013-05-14 16:33:00,73.0,45.0,-100.00,SW,220,9.0,13.0,37,-99.99,,,-99.99,,2013-05-14 20:33:00,
2013-05-14 16:44:00,73.0,45.0,-100.00,SW,220,9.0,13.0,37,-99.99,,,-99.99,,2013-05-14 20:44:00,
2013-05-14 16:52:00,75.0,47.0,-100.00,West,275,5.0,14.0,37,-99.99,,,-99.99,,2013-05-14 20:52:00,
2013-05-14 17:03:00,74.0,46.0,-100.00,WSW,240,8.0,17.0,38,-99.99,,,-99.99,,2013-05-14 21:03:00,
2013-05-14 17:12:00,75.0,48.0,-100.00,West,260,7.0,15.0,38,-99.99,,,-99.99,,2013-05-14 21:12:00,
2013-05-14 17:23:00,75.0,48.0,-100.00,SW,235,9.0,21.0,38,-99.99,,,-99.99,,2013-05-14 21:23:00,
2013-05-14 17:34:00,75.0,48.0,-100.00,SW,235,9.0,21.0,38,-99.99,,,-99.99,,2013-05-14 21:34:00,
2013-05-14 17:43:00,74.0,47.0,-100.00,SW,225,10.0,21.0,39,-99.99,,,-99.99,,2013-05-14 21:43:00,
2013-05-14 17:52:00,74.0,48.0,-100.00,WSW,250,8.0,20.0,39,-99.99,,,-99.99,,2013-05-14 21:52:00,
2013-05-14 18:03:00,74.0,48.0,-100.00,WSW,240,11.0,20.0,40,-99.99,,,-99.99,,2013-05-14 22:03:00,
2013-05-14 18:13:00,75.0,49.0,-100.00,WSW,240,4.0,14.0,40,-99.99,,,-99.99,,2013-05-14 22:13:00,
2013-05-14 18:24:00,75.0,49.0,-100.00,WSW,250,6.0,17.0,40,-99.99,,,-99.99,,2013-05-14 22:24:00,
2013-05-14 18:34:00,74.0,48.0,-100.00,WSW,245,9.0,17.0,40,-99.99,,,-99.99,,2013-05-14 22:34:00,
2013-05-14 18:45:00,74.0,48.0,-100.00,SW,230,6.0,16.0,41,-99.99,,,-99.99,,2013-05-14 22:45:00,
2013-05-14 18:54:00,74.0,49.0,-100.00,WSW,245,7.0,16.0,42,-99.99,,,-99.99,,2013-05-14 22:54:00,
2013-05-14 19:03:00,73.0,49.0,-100.00,SW,235,11.0,20.0,42,-99.99,,,-99.99,,2013-05-14 23:03:00,
2013-05-14 19:12:00,74.0,50.0,-100.00,SW,235,4.0,16.0,42,-99.99,,,-99.99,,2013-05-14 23:12:00,
2013-05-14 19:22:00,74.0,50.0,-100.00,SW,220,6.0,16.0,42,-99.99,,,-99.99,,2013-05-14 23:22:00,
2013-05-14 19:32:00,74.0,50.0,-100.00,West,275,6.0,14.0,43,-99.99,,,-99.99,,2013-05-14 23:32:00,
2013-05-14 19:44:00,74.0,50.0,-100.00,SW,230,6.0,17.0,43,-99.99,,,-99.99,,2013-05-14 23:44:00,
2013-05-14 19:52:00,74.0,50.0,-100.00,WSW,240,5.0,12.0,43,-99.99,,,-99.99,,2013-05-14 23:52:00,
2013-05-14 20:02:00,74.0,50.0,-100.00,WSW,250,4.0,10.0,43,-99.99,,,-99.99,,2013-05-15 00:02:00,
2013-05-14 20:11:00,74.0,51.0,-100.00,SW,225,4.0,11.0,44,-99.99,,,-99.99,,2013-05-15 00:11:00,
2013-05-14 20:21:00,74.0,51.0,-100.00,WSW,250,6.0,9.0,45,-99.99,,,-99.99,,2013-05-15 00:21:00,
2013-05-14 20:32:00,74.0,51.0,-100.00,WSW,250,6.0,9.0,45,-99.99,,,-99.99,,2013-05-15 00:32:00,
2013-05-14 20:42:00,72.0,51.0,-100.00,WSW,240,3.0,6.0,47,-99.99,,,-99.99,,2013-05-15 00:42:00,
2013-05-14 20:51:00,71.0,51.0,-100.00,SW,225,1.0,5.0,48,-99.99,,,-99.99,,2013-05-15 00:51:00,
2013-05-14 21:01:00,71.0,51.0,-100.00,SW,225,4.0,6.0,50,-99.99,,,-99.99,,2013-05-15 01:01:00,
2013-05-14 21:11:00,70.0,51.0,-100.00,SSW,210,4.0,7.0,50,-99.99,,,-99.99,,2013-05-15 01:11:00,
2013-05-14 21:22:00,70.0,51.0,-100.00,SW,225,4.0,8.0,51,-99.99,,,-99.99,,2013-05-15 01:22:00,
2013-05-14 21:32:00,70.0,52.0,-100.00,SW,230,4.0,6.0,53,-99.99,,,-99.99,,2013-05-15 01:32:00,
2013-05-14 21:42:00,69.0,52.0,-100.00,SW,235,4.0,6.0,54,-99.99,,,-99.99,,2013-05-15 01:42:00,
2013-05-14 21:52:00,69.0,52.0,-100.00,SW,220,3.0,6.0,55,-99.99,,,-99.99,,2013-05-15 01:52:00,
2013-05-14 22:02:00,69.0,52.0,-100.00,WSW,240,4.0,6.0,56,-99.99,,,-99.99,,2013-05-15 02:02:00,
2013-05-14 22:11:00,68.0,52.0,-100.00,WSW,245,3.0,7.0,57,-99.99,,,-99.99,,2013-05-15 02:11:00,
2013-05-14 22:22:00,68.0,52.0,-100.00,SW,230,4.0,5.0,58,-99.99,,,-99.99,,2013-05-15 02:22:00,
2013-05-14 22:32:00,67.0,53.0,-100.00,SW,235,6.0,9.0,59,-99.99,,,-99.99,,2013-05-15 02:32:00,
2013-05-14 22:42:00,68.0,53.0,-100.00,SW,235,4.0,9.0,59,-99.99,,,-99.99,,2013-05-15 02:42:00,
2013-05-14 22:52:00,68.0,53.0,-100.00,WSW,245,5.0,11.0,59,-99.99,,,-99.99,,2013-05-15 02:52:00,
2013-05-14 23:01:00,68.0,53.0,-100.00,West,260,4.0,11.0,59,-99.99,,,-99.99,,2013-05-15 03:01:00,
2013-05-14 23:13:00,67.0,53.0,-100.00,SW,235,4.0,14.0,60,-99.99,,,-99.99,,2013-05-15 03:13:00,
2013-05-14 23:22:00,67.0,53.0,-100.00,WSW,245,3.0,9.0,60,-99.99,,,-99.99,,2013-05-15 03:22:00,
2013-05-14 23:33:00,67.0,53.0,-100.00,WSW,250,5.0,10.0,61,-99.99,,,-99.99,,2013-05-15 03:33:00,
2013-05-14 23:44:00,67.0,53.0,-100.00,SW,235,6.0,12.0,61,-99.99,,,-99.99,,2013-05-15 03:44:00,
2013-05-14 23:54:00,67.0,53.0,-100.00,West,265,6.0,13.0,61,-99.99,,,-99.99,,2013-05-15 03:54:00,